Location: Morehouse Lake Observatory
(43.3628°N, 74.6770°W)
Time: 15:57:50
(UTC-05:00)

Envisat - Pass Details

Date: 24 October 2019
Orbit: 764 x 766 km, 98.1° (Epoch: 18 November)

Event Time Altitude Azimuth Distance (km) Brightness Sun altitude
Rises 06:26:38 0° 34° (NE) 3,238 6.7 -11.0°
Reaches altitude 10° 06:30:33 10° 65° (ENE) 2,305 6.5 -10.3°
Maximum altitude 06:32:31 12° 88° (E) 2,155 6.8 -9.9°
Drops below altitude 10° 06:34:28 10° 111° (ESE) 2,298 6.9 -9.6°
Sets 06:38:21 0° 141° (SE) 3,216 7.0 -8.9°
